www.pogodaiklimat.ru

АРХИВ ПОГОДЫ в Бейкер-Сити

Время (UTC), дата Ветер
(напр.,м/с)
 
Видим.   Явления Облачность Т
(С)
Тd
(С)
f
(%)
Тe
(С)
Тes
(С)
Комфортность

P
(гПа)

Po
(гПа)
Тmin
(С)
Tmax
(С)
R
(мм)
SD
(см)
13:53 19.04   16 км    ясно  +11.7  +6.1  68  +11  +12    1016.1  899.1         
14:53 19.04 В  16 км    5/0 3000 м
[средняя] 
+17.8  +6.7  48  +17  +17    1015.1  898.5         
15:53 19.04 В  16 км    2/0 3000 м
[средняя] 
+20.6  +7.2  42  +21  +22  комфорт  1014.0  897.6         
16:53 19.04 В  16 км    2/0 3000 м
[средняя] 
+21.1  +7.2  41  +22  +24  комфорт  1013.5  897.0  +3.3  +21.1     
17:53 19.04 В  16 км    ясно  +22.8  +7.8  38  +24  +26  комфорт  1012.8  896.4         
18:53 19.04 В  16 км    ясно  +23.3  +8.9  40  +25  +28  комфорт  1011.5  895.5         
19:53 19.04 В  16 км    2/0 3300 м
[средняя] 
+23.3  +8.9  40  +25  +28  комфорт  1010.5  894.3         
20:53 19.04 ЮВ  16 км    5/0 2700 м
[средняя] 
+25.6  +7.8  32  +26  +27  жарко  1008.7  893.1         
21:04 19.04 ЮВ  16 км    5/0 2850 м
[средняя] 
+23.9  +7.8  36  +24  +26  комфорт    892.8         
21:53 19.04 ЮЗ  16 км    8/0 2100 м
[средняя] 
+23.9  +8.9  38  +25  +28  комфорт  1008.0  892.2         
22:37 19.04 СЗ  7
{9} 
16 км  гроза  5/0 3300 м
[средняя] 
+22.8  +10.6  46  +25  +26  комфорт    891.6         
22:53 19.04 нст  16 км    2/0 3300 м
[средняя] 
+20.6  +10.6  53  +23  +29  комфорт  1007.3  891.3  +20.6  +25.6     
23:53 19.04 СЗ  9
{13} 
16 км    8/0 3300 м
[средняя] 
+18.3  +10.6  61  +17  +17    1008.1  891.6         
00:53 20.04 СЗ  16 км    2/0 3300 м
[средняя] 
+15.0  +11.1  77  +13  +13    1008.5  891.6         
01:53 20.04 СЗ  16 км    8/8 1800 м
[средняя] 
+14.4  +10.0  75  +13  +13    1007.9  891.6      0.5   
02:53 20.04 СЗ  16 км    8/0 2100 м
[средняя] 
+13.3  +10.0  80  +11  +11    1007.9  892.2         
03:53 20.04 СЗ  16 км    10/10 1800 м  +13.3  +10.0  80  +12  +12    1007.9  892.5         
04:53 20.04 СЗ  16 км    8/8 1800 м  +13.3  +10.0  80  +11  +11    1008.1  892.8  +13.3  +20.6  0.5   
05:53 20.04 СЗ  7
{10} 
16 км    8/8 1650 м
[средняя] 
+12.2  +8.9  80  +9  +9    1008.1  892.8         
06:53 20.04 СЗ  16 км    10/10 1950 м  +10.6  +6.7  77  +7  +7    1008.6  893.1         
07:53 20.04 СЗ  16 км    8/8 1080 м
[средняя] 
+10.0  +6.7  80  +8  +8    1008.8  893.1         
08:53 20.04 СЗ  16 км  слабый дождь  10/10 1230 м  +10.0  +6.7  80  +8  +8    1008.6  893.1         
09:53 20.04 СЗ  16 км    8/2 1950 м
[средняя] 
+9.4  +6.7  83  +7  +7    1008.1  892.5         
10:53 20.04 З  16 км    8/0 2700 м
[средняя] 
+9.4  +6.1  80  +6  +6    1008.2  892.2  +9.4  +13.3  1.0   
11:53 20.04 СЗ  16 км  слабый дождь  10/0 2100 м
[средняя] 
+8.9  +6.1  83  +6  +6    1008.2  892.2         
12:53 20.04   16 км    10/0 2700 м
[средняя] 
+8.9  +6.1  83  +8  +8    1009.2  892.8         
13:53 20.04 СЗ  16 км    10/8 1500 м
[средняя] 
+10.0  +6.7  80  +7  +7    1009.4  892.8      0.3   
14:53 20.04 СЗ  16 км    5/5 1440 м  +10.6  +6.7  77  +7  +8    1009.1  892.5         
15:28 20.04 СЗ  16 км    10/10 510 м  +11.1  +6.7  74  +8  +8      892.8         
15:53 20.04 СЗ  8
{10} 
16 км    10/10 870 м  +11.7  +7.2  74  +8  +8    1009.3  892.8         
16:23 20.04 СЗ  16 км    10/10 870 м  +11.7  +6.7  71  +9  +9      893.1         
16:53 20.04 СЗ  16 км    10/10 990 м  +11.1  +6.1  71  +8  +8    1009.6  893.1  +8.9  +11.7  0.3   
17:53 20.04 СЗ  16 км    10/10 1500 м  +12.2  +6.1  66  +9  +9    1009.8  893.1         
18:53 20.04 СЗ  16 км  слабый дождь  10/10 1500 м  +12.2  +6.7  69  +9  +9    1009.8  893.1         
19:53 20.04 СЗ  8
{11} 
16 км  слабый дождь  10/10 1050 м  +11.1  +7.8  80  +7  +7    1010.2  893.1      0.3   
20:53 20.04 СЗ  9
{14} 
16 км  слабый дождь  10/10 780 м  +10.6  +5.6  71  +6  +6    1010.9  893.7         
21:53 20.04 СЗ  16 км  слабый дождь  10/10 1410 м  +10.0  +6.1  77  +6  +6    1011.4  894.0         
22:53 20.04 СЗ  7
{13} 
16 км    10/10 1650 м  +10.0  +5.6  74  +6  +6    1011.8  894.6  +9.4  +12.8  0.3   
23:53 20.04 СЗ  16 км    10/10 1950 м  +10.6  +5.0  68  +6  +6    1012.0  894.6         
00:53 21.04 СЗ  16 км    10/0 2100 м
[средняя] 
+10.0  +3.9  66  +6  +6    1012.3  894.9         
01:53 21.04 З  16 км    8/0 2400 м
[средняя] 
+9.4  +3.3  66  +5  +5    1013.0  895.5         
02:53 21.04 З  16 км    10/0 2550 м
[средняя] 
+9.4  +3.9  68  +6  +6    1013.8  896.1         
03:53 21.04 З  16 км    10/0 2850 м
[средняя] 
+8.9  +3.3  68  +5  +5    1014.1  896.4         
04:53 21.04 СЗ  16 км    5/0 3000 м
[средняя] 
+7.2  +2.8  74  +3  +3    1014.8  897.0  +7.2  +10.6     
05:53 21.04 СЗ  16 км    ясно  +7.2  +3.3  76  +3  +3    1015.3  897.6         
06:53 21.04 СЗ  16 км    ясно  +6.7  +3.9  82  +2  +2    1015.8  897.9         
07:53 21.04 СЗ  16 км    ясно  +6.7  +3.9  82  +2  +2    1016.3  898.2         
08:53 21.04 СЗ  16 км    ясно  +7.2  +3.3  76  +2  +2    1016.5  898.2         

 

Местоположение метеостанции Baker City Municipal Airport: широта 44.8372 долгота -117.8092 высота над уровнем моря 1028 м.

В архиве по умолчанию представлена погода в Бейкер-Сити за последние 1-2 суток. Обновление информации о фактической погоде в базе происходит ежечасно! Архивные данные за месяц целиком и за предыдущие месяцы Вы можете получить, выбрав интересующий диапазон дат из раскрывающегося списка и нажав кнопку "Ввод!".

Внимание! Архив погоды МЕТАР в базе сайта в настоящее время начинается c 1 января 2011 г. Нет смысла пытаться выбрать более раннюю дату.

Внимание! Время в таблицах - всемирное. Для получения местного времени необходимо прибавить поправку, которая в Бейкер-Сити равна -8 ч.

Ветер - указаны скорость ветра в м/с и направление, откуда дует ветер: С - северный, СВ - северо-восточный, В - восточный, ЮВ - юго-восточный, Ю - южный, ЮЗ - юго-западный, З - западный, СЗ - северо-западный.
Видимость - горизонтальная дальность видимости в метрах или километрах. При видимости от 1 до 10 км при отсутствии осадков обычно наблюдается дымка, при ухудшении видимости до 1 км и менее - туман. В сухую погоду видимость может ухудшаться дымом, пылью или мглою.
Атмосферные явления - указаны явления, наблюдавшиеся в указанный момент времени.
Облачность - указаны через наклонную черту верхняя и нижняя облачность в баллах и высота нижней границы облаков в метрах. Внимание: облачность, как и прочие метеорологические величины в США измеряются автоматическими метеостанциями. Указанные значения в баллах носят условный характер и показывают процент времени, в течение которого, в среднем, лазерный луч высотомера отражался от облаков обратно.
T - Температура воздуха - температура, измеренная на высоте 2 м над землей.
Td - Температура точки росы - температура, при понижении до которой содержащийся в воздухе водяной пар достигнет насыщения.
f - Относительная влажность воздуха - влажноcть воздуха, измеренная на высоте 2 м над землей.
Te - Эффективная температура - температура, которую ощущает одетый по сезону человек в тени. Характеристика душности погоды. При расчете учитывается влияние влажности воздуха и скорости ветра на теплоощущения человека.
Tes - Эффективная температура на солнце - температура, которую ощущает человек, с поправкой на солнечный нагрев. Характеристика знойности погоды. Зависит от высоты солнца над горизонтом, облачности и скорости ветра. Ночью, в пасмурную погоду, а также при ветре 12 м/с и более поправка равна нулю.
P - Атмосферное давление - приведенное к уровню моря атмосферное давление.
Po - Атмосферное давление - измеренное на уровне метеостанции атмосферное давление.
Tmin - Минимальная температура - минимум температуры воздуха на высоте 2 м над землей.
Tmax - Максимальная температура - максимум температуры воздуха на высоте 2 м над землей.
R - Количество осадков - Количество выпавших осадков за 3 или 6 часов, мм.
SD - Снежный покров - Высота снежного покрова, см.